Location: Newark
(50.0306°N, 2.3272°E)
Time: 03:14:21
(UTC+00:00)

A-11 Canister half - Pass Details

Date: 10 December 2019
Orbit: 1525 x 1684 km, 47.3° (Epoch: 17 January)

Event Time Altitude Azimuth Distance (km) Brightness Sun altitude
Rises 11:13:06 0° 285° (WNW) 4,937 11.4 16.8°
Reaches altitude 10° 11:16:22 10° 281° (WNW) 3,939 11.0 16.8°
Maximum altitude 11:26:02 53° 209° (SSW) 1,955 10.4 17.0°
Drops below altitude 10° 11:35:25 10° 136° (SE) 3,829 12.0 17.0°
Sets 11:38:34 0° 132° (SE) 4,791 12.3 17.1°
